Tracking 19192 objects as of 21-Jun-2018
HD Live streaming from Space Station
objects crossing your sky now

FENGYUN 1C DEB

Track FENGYUN 1C DEB now!
10-day predictions


NORAD ID: 30912
Int'l Code: 1999-025AZA
Perigee: 644.9 km
Apogee: 804.4 km
Inclination: 99.0 °
Period: 99.1 minutes
Semi major axis: 7095 km
RCS: 0.0132 m2 (small)
Launch date: May 10, 1999
Source: People's Republic of China (PRC)
Launch site: Taiyaun Space Center, China (TSC)

Note: This is SATELLITE DEBRIS
aabbcc
Your satellite tracking list
Your tracking list is empty




NASA's NSSDC Master Catalog

Two Line Element Set (TLE):
1 30912U 99025AZA 18170.74690134 +.00000453 +00000-0 +11497-3 0  9998
2 30912 098.9653 103.7345 0112391 150.2913 210.4727 14.52509088595259
Source of the keplerian elements: AFSPC